Change the Weather History Date:

Wednesday, December 11, 2013

  Actual Average (YSSY) Record (YSSY)
Temperature  
Mean Temperature 74 °F -  
Max Temperature 87 °F 84 °F 91 °F (2003)
Min Temperature 60 °F 62 °F 59 °F (2002)
Cooling Degree Days 8    
Growing Degree Days 24 (Base 50)    
Moisture  
Dew Point 52 °F    
Average Humidity 53    
Maximum Humidity 94    
Minimum Humidity 20    
Precipitation  
Precipitation 0.00 in 0.11 in - ()
Sea Level Pressure  
Sea Level Pressure 29.74 in    
Wind  
Wind Speed 5 mph ()    
Max Wind Speed 18 mph    
Max Gust Speed -    
Visibility 6.2 miles    
Events      
Averages and records for this station are not official NWS values.
T = Trace of Precipitation, MM = Missing Value Source: Averaged Metar Reports

Daily Weather History Graph

Daily Weather History Graph

Search for Another Location

Airport or City:

Trip Planner

Search our weather history database for the weather conditions in past years. The results will help you decide how hot, cold, wet, or windy it might be!

Date:

Astronomy

Dec. 11, 2013 Rise Set
Actual Time 5:39 AM AEDT 8:00 PM AEDT
Civil Twilight 5:11 AM AEDT 8:29 PM AEDT
Nautical Twilight 4:35 AM AEDT 9:04 PM AEDT
Astronomical Twilight 3:57 AM AEDT 9:43 PM AEDT
Moon 2:16 PM AEDT (12/11) 1:28 AM AEDT (12/11)
Length of Visible Light 15h 18m
Length of Day
14h 20m
Waxing Gibbous, 65% of the Moon is Illuminated
Dec 11
Waxing Gibbous
Dec 17
Full
Dec 26
Last Quarter
Jan 1
New
Jan 8
First Quarter

Hourly Weather History & Observations

Time (AEDT) Temp. Dew Point Humidity Pressure Visibility Wind Dir Wind Speed Gust Speed Precip Events Conditions
12:00 AM 68.0 °F 62.6 °F 83% 29.80 in 6.2 mi West 1.2 mph - N/A   Unknown
12:30 AM 64.4 °F 59.0 °F 83% 29.80 in 6.2 mi West 5.8 mph - N/A   Unknown
1:00 AM 66.2 °F 60.8 °F 83% 29.80 in 6.2 mi West 6.9 mph - N/A   Scattered Clouds
1:30 AM 66.2 °F 62.6 °F 88% 29.80 in 6.2 mi WSW 5.8 mph - N/A   Mostly Cloudy
2:00 AM 66.2 °F 62.6 °F 88% 29.80 in 6.2 mi SW 4.6 mph - N/A   Overcast
2:30 AM 64.4 °F 60.8 °F 88% 29.77 in 6.2 mi SW 3.5 mph - N/A   Mostly Cloudy
3:00 AM 64.4 °F 60.8 °F 88% 29.77 in 6.2 mi SW 4.6 mph - N/A   Mostly Cloudy
3:30 AM 64.4 °F 60.8 °F 88% 29.77 in 6.2 mi SW 3.5 mph - N/A   Scattered Clouds
4:00 AM 64.4 °F 60.8 °F 88% 29.77 in 6.2 mi SW 3.5 mph - N/A   Unknown
4:30 AM 62.6 °F 59.0 °F 88% 29.77 in 6.2 mi Calm Calm - N/A   Mostly Cloudy
5:00 AM 60.8 °F 59.0 °F 94% 29.77 in 6.2 mi Calm Calm - N/A   Scattered Clouds
5:30 AM 60.8 °F 59.0 °F 94% 29.77 in 6.2 mi Calm Calm - N/A   Unknown
6:00 AM 60.8 °F 59.0 °F 94% 29.80 in 6.2 mi Calm Calm - N/A   Unknown
6:30 AM 60.8 °F 59.0 °F 94% 29.80 in 6.2 mi Calm Calm - N/A   Unknown
6:52 AM 62.6 °F 60.8 °F 94% 29.80 in 6.2 mi Calm Calm - N/A   Mostly Cloudy
7:00 AM 62.6 °F 59.0 °F 88% 29.80 in 6.2 mi NE 1.2 mph - N/A   Mostly Cloudy
7:30 AM 66.2 °F 57.2 °F 73% 29.80 in 6.2 mi Calm Calm - N/A   Scattered Clouds
7:35 AM 66.2 °F 59.0 °F 78% 29.80 in 6.2 mi Calm Calm - N/A   Scattered Clouds
8:00 AM 68.0 °F 57.2 °F 68% 29.80 in 6.2 mi Calm Calm - N/A   Unknown
8:30 AM 69.8 °F 60.8 °F 73% 29.83 in 6.2 mi Calm Calm - N/A   Unknown
9:00 AM 71.6 °F 59.0 °F 64% 29.80 in 6.2 mi ESE 1.2 mph - N/A   Unknown
9:30 AM 73.4 °F 57.2 °F 57% 29.80 in 6.2 mi ENE 5.8 mph - N/A   Unknown
10:00 AM 73.4 °F 53.6 °F 50% 29.80 in 6.2 mi ENE 4.6 mph - N/A   Unknown
10:30 AM 75.2 °F 55.4 °F 50% 29.77 in 6.2 mi NNE 2.3 mph - N/A   Unknown
11:00 AM 75.2 °F 53.6 °F 47% 29.77 in 6.2 mi North 3.5 mph - N/A   Unknown
11:30 AM 77.0 °F 51.8 °F 41% 29.74 in 6.2 mi South 3.5 mph - N/A   Unknown
12:00 PM 78.8 °F 50.0 °F 36% 29.74 in 6.2 mi South 3.5 mph - N/A   Unknown
12:30 PM 80.6 °F 51.8 °F 37% 29.71 in 6.2 mi North 2.3 mph - N/A   Unknown
1:00 PM 80.6 °F 48.2 °F 32% 29.71 in 6.2 mi SSE 5.8 mph - N/A   Unknown
1:30 PM 82.4 °F 48.2 °F 30% 29.68 in 6.2 mi East 4.6 mph - N/A   Unknown
2:00 PM 84.2 °F 51.8 °F 33% 29.68 in 6.2 mi ESE 3.5 mph - N/A   Unknown
2:30 PM 86.0 °F 46.4 °F 25% 29.65 in 6.2 mi North 5.8 mph - N/A   Unknown
2:51 PM 86.0 °F 42.8 °F 22% 29.65 in 6.2 mi West 17.3 mph - N/A   Unknown
3:00 PM 86.0 °F 42.8 °F 22% 29.65 in 6.2 mi West 18.4 mph - N/A   Unknown
3:30 PM 86.0 °F 41.0 °F 20% 29.62 in 6.2 mi West 18.4 mph - N/A   Unknown
4:00 PM 87.8 °F 42.8 °F 21% 29.62 in 6.2 mi WSW 17.3 mph - N/A   Unknown
4:30 PM 86.0 °F 42.8 °F 22% 29.62 in 6.2 mi WNW 16.1 mph - N/A   Unknown
5:00 PM 86.0 °F 41.0 °F 20% 29.62 in 6.2 mi West 17.3 mph - N/A   Unknown
5:30 PM 86.0 °F 44.6 °F 23% 29.62 in 6.2 mi WNW 12.7 mph - N/A   Unknown
6:00 PM 86.0 °F 44.6 °F 23% 29.62 in 6.2 mi WNW 13.8 mph - N/A   Unknown
6:30 PM 84.2 °F 44.6 °F 25% 29.65 in 6.2 mi WSW 12.7 mph - N/A   Unknown
7:00 PM 84.2 °F 42.8 °F 23% 29.65 in 6.2 mi WSW 10.4 mph - N/A   Unknown
7:30 PM 80.6 °F 42.8 °F 26% 29.68 in 6.2 mi West 10.4 mph - N/A   Unknown
8:00 PM 78.8 °F 42.8 °F 28% 29.68 in 6.2 mi WSW 8.1 mph - N/A   Unknown
8:30 PM 77.0 °F 42.8 °F 29% 29.71 in 6.2 mi SW 8.1 mph - N/A   Unknown
9:00 PM 77.0 °F 41.0 °F 28% 29.71 in 6.2 mi WSW 9.2 mph - N/A   Unknown
9:30 PM 73.4 °F 42.8 °F 33% 29.74 in 6.2 mi SW 5.8 mph - N/A   Unknown
10:00 PM 73.4 °F 42.8 °F 33% 29.77 in 6.2 mi SW 5.8 mph - N/A   Unknown
10:30 PM 71.6 °F 42.8 °F 35% 29.77 in 6.2 mi SSE 5.8 mph - N/A   Unknown
11:00 PM 71.6 °F 42.8 °F 35% 29.80 in 6.2 mi South 4.6 mph - N/A   Unknown
11:30 PM 69.8 °F 42.8 °F 38% 29.80 in 6.2 mi SSE 4.6 mph - N/A   Unknown